"Sample Date","Sample Time","Sample Value","Units","Flow Rate","Number Channels","Micron Size 0","Counts/Channel 0","Micron Size 1","Counts/Channel 1","Micron Size 2","Counts/Channel 2","Micron Size 3","Counts/Channel 3","Micron Size 4","Counts/Channel 4","Micron Size 5","Counts/Channel 5","Micron Size 6","Counts/Channel 6","Micron Size 7","Counts/Channel 7","Micron Size 8","Counts/Channel 8","Micron Size 9","Counts/Channel 9","Micron Size 10","Counts/Channel 10","Micron Size 11","Counts/Channel 11","Micron Size 12","Counts/Channel 12","Micron Size 13","Counts/Channel 13","Micron Size 14","Counts/Channel 14","Micron Size 15","Counts/Channel 15","Micron Size 16","Counts/Channel 16","Micron Size 17","Counts/Channel 17","Micron Size 18","Counts/Channel 18","Micron Size 19","Counts/Channel 19","Micron Size 20","Counts/Channel 20","Micron Size 21","Counts/Channel 21","Micron Size 22","Counts/Channel 22","Micron Size 23","Counts/Channel 23","Micron Size 24","Counts/Channel 24","Micron Size 25","Counts/Channel 25","Micron Size 26","Counts/Channel 26","Micron Size 27","Counts/Channel 27","Micron Size 28","Counts/Channel 28","Micron Size 29","Counts/Channel 29","Micron Size 30","Counts/Channel 30","Micron Size 31","Counts/Channel 31"
"05/06/08","14:00:01",39.000,"cc",28544.303,6,0.100,34.000,0.200,4.000,0.300,1.000,0.500,0,1.000,0,5.000,0
"05/06/08","14:00:07",38.000,"cc",28554.492,6,0.100,31.000,0.200,6.000,0.300,0,0.500,0,1.000,1.000,5.000,0
"05/06/08","14:00:13",8364.000,"cc",27987.756,6,0.100,6485.000,0.200,1060.000,0.300,337.000,0.500,257.000,1.000,131.000,5.000,94.000
"05/06/08","14:00:19",556.000,"cc",26533.336,6,0.100,345.000,0.200,118.000,0.300,42.000,0.500,41.000,1.000,10.000,5.000,0
"05/06/08","14:00:25",260.000,"cc",27010.725,6,0.100,207.000,0.200,36.000,0.300,13.000,0.500,1.000,1.000,3.000,5.000,0
"05/06/08","14:00:31",75.000,"cc",27103.055,6,0.100,61.000,0.200,9.000,0.300,2.000,0.500,1.000,1.000,2.000,5.000,0
"05/06/08","14:00:37",66.000,"cc",27026.986,6,0.100,54.000,0.200,7.000,0.300,1.000,0.500,3.000,1.000,0,5.000,1.000
"05/06/08","14:00:43",47.000,"cc",26883.307,6,0.100,35.000,0.200,11.000,0.300,0,0.500,1.000,1.000,0,5.000,0
"05/06/08","14:00:49",38.000,"cc",26878.852,6,0.100,30.000,0.200,7.000,0.300,0,0.500,1.000,1.000,0,5.000,0
"05/06/08","14:00:55",43.000,"cc",26849.100,6,0.100,34.000,0.200,7.000,0.300,2.000,0.500,0,1.000,0,5.000,0
"05/06/08","14:01:01",39.000,"cc",26836.639,6,0.100,35.000,0.200,3.000,0.300,0,0.500,1.000,1.000,0,5.000,0
"05/06/08","14:01:07",41.000,"cc",26892.545,6,0.100,33.000,0.200,7.000,0.300,1.000,0.500,0,1.000,0,5.000,0
"05/06/08","14:01:13",34.000,"cc",26906.053,6,0.100,25.000,0.200,8.000,0.300,1.000,0.500,0,1.000,0,5.000,0
"05/06/08","14:01:19",28.000,"cc",27013.270,6,0.100,25.000,0.200,2.000,0.300,1.000,0.500,0,1.000,0,5.000,0
"05/06/08","14:01:25",46.000,"cc",27199.348,6,0.100,39.000,0.200,6.000,0.300,1.000,0.500,0,1.000,0,5.000,0
"05/06/08","14:01:31",46.000,"cc",27477.824,6,0.100,36.000,0.200,10.000,0.300,0,0.500,0,1.000,0,5.000,0
"05/06/08","14:01:37",36.000,"cc",27948.791,6,0.100,25.000,0.200,11.000,0.300,0,0.500,0,1.000,0,5.000,0
"05/06/08","14:01:43",37.000,"cc",28423.854,6,0.100,31.000,0.200,5.000,0.300,0,0.500,0,1.000,1.000,5.000,0
"05/06/08","14:01:49",37.000,"cc",28561.361,6,0.100,30.000,0.200,6.000,0.300,0,0.500,0,1.000,1.000,5.000,0
"05/06/08","14:01:55",33.000,"cc",28611.402,6,0.100,30.000,0.200,3.000,0.300,0,0.500,0,1.000,0,5.000,0
"05/06/08","14:02:01",41.000,"cc",28644.635,6,0.100,38.000,0.200,2.000,0.300,1.000,0.500,0,1.000,0,5.000,0
"05/06/08","14:02:07",33.000,"cc",28574.998,6,0.100,28.000,0.200,5.000,0.300,0,0.500,0,1.000,0,5.000,0
"05/06/08","14:02:13",30.000,"cc",28568.258,6,0.100,24.000,0.200,6.000,0.300,0,0.500,0,1.000,0,5.000,0
"05/06/08","14:02:19",40.000,"cc",28575.195,6,0.100,31.000,0.200,9.000,0.300,0,0.500,0,1.000,0,5.000,0
"05/06/08","14:02:25",33.000,"cc",28537.816,6,0.100,29.000,0.200,4.000,0.300,0,0.500,0,1.000,0,5.000,0
"05/06/08","14:02:31",57.000,"cc",28618.969,6,0.100,51.000,0.200,6.000,0.300,0,0.500,0,1.000,0,5.000,0
"05/06/08","14:02:37",37.000,"cc",28536.434,6,0.100,32.000,0.200,4.000,0.300,1.000,0.500,0,1.000,0,5.000,0
"05/06/08","14:02:43",38.000,"cc",28548.356,6,0.100,34.000,0.200,4.000,0.300,0,0.500,0,1.000,0,5.000,0
"05/06/08","14:02:49",43.000,"cc",28570.816,6,0.100,37.000,0.200,6.000,0.300,0,0.500,0,1.000,0,5.000,0
"05/06/08","14:02:55",44.000,"cc",28540.039,6,0.100,41.000,0.200,3.000,0.300,0,0.500,0,1.000,0,5.000,0
"05/06/08","14:03:01",41.000,"cc",28560.143,6,0.100,38.000,0.200,3.000,0.300,0,0.500,0,1.000,0,5.000,0
"05/06/08","14:03:07",31.000,"cc",28607.096,6,0.100,24.000,0.200,5.000,0.300,2.000,0.500,0,1.000,0,5.000,0
"05/06/08","14:03:13",38.000,"cc",28460.820,6,0.100,30.000,0.200,8.000,0.300,0,0.500,0,1.000,0,5.000,0
"05/06/08","14:03:19",34.000,"cc",28562.455,6,0.100,26.000,0.200,8.000,0.300,0,0.500,0,1.000,0,5.000,0
"05/06/08","14:03:25",39.000,"cc",28575.818,6,0.100,30.000,0.200,9.000,0.300,0,0.500,0,1.000,0,5.000,0
"05/06/08","14:03:31",42.000,"cc",28606.680,6,0.100,35.000,0.200,7.000,0.300,0,0.500,0,1.000,0,5.000,0
"05/06/08","14:03:37",41.000,"cc",28506.967,6,0.100,39.000,0.200,2.000,0.300,0,0.500,0,1.000,0,5.000,0
"05/06/08","14:03:43",38.000,"cc",28555.465,6,0.100,30.000,0.200,8.000,0.300,0,0.500,0,1.000,0,5.000,0
"05/06/08","14:03:49",30.000,"cc",28528.467,6,0.100,25.000,0.200,4.000,0.300,1.000,0.500,0,1.000,0,5.000,0
"05/06/08","14:03:55",28.000,"cc",28492.416,6,0.100,26.000,0.200,2.000,0.300,0,0.500,0,1.000,0,5.000,0
"05/06/08","14:04:01",31.000,"cc",28455.225,6,0.100,27.000,0.200,4.000,0.300,0,0.500,0,1.000,0,5.000,0
"05/06/08","14:04:07",38.000,"cc",28479.627,6,0.100,32.000,0.200,6.000,0.300,0,0.500,0,1.000,0,5.000,0
"05/06/08","14:04:13",43.000,"cc",28531.979,6,0.100,36.000,0.200,5.000,0.300,2.000,0.500,0,1.000,0,5.000,0
"05/06/08","14:04:19",38.000,"cc",28472.352,6,0.100,32.000,0.200,6.000,0.300,0,0.500,0,1.000,0,5.000,0
"05/06/08","14:04:25",41.000,"cc",28528.066,6,0.100,33.000,0.200,8.000,0.300,0,0.500,0,1.000,0,5.000,0
"05/06/08","14:04:31",22.000,"cc",28539.713,6,0.100,20.000,0.200,2.000,0.300,0,0.500,0,1.000,0,5.000,0
"05/06/08","14:04:37",31.000,"cc",28495.428,6,0.100,28.000,0.200,3.000,0.300,0,0.500,0,1.000,0,5.000,0
"05/06/08","14:04:43",32.000,"cc",28465.602,6,0.100,28.000,0.200,3.000,0.300,1.000,0.500,0,1.000,0,5.000,0
"05/06/08","14:04:49",35.000,"cc",28484.613,6,0.100,30.000,0.200,5.000,0.300,0,0.500,0,1.000,0,5.000,0
"05/06/08","14:04:55",44.000,"cc",28462.010,6,0.100,37.000,0.200,5.000,0.300,2.000,0.500,0,1.000,0,5.000,0
"05/06/08","14:05:01",25.000,"cc",28471.012,6,0.100,24.000,0.200,1.000,0.300,0,0.500,0,1.000,0,5.000,0
"05/06/08","14:05:07",38.000,"cc",28564.656,6,0.100,31.000,0.200,6.000,0.300,1.000,0.500,0,1.000,0,5.000,0
"05/06/08","14:05:13",31.000,"cc",28605.359,6,0.100,27.000,0.200,1.000,0.300,3.000,0.500,0,1.000,0,5.000,0
"05/06/08","14:05:19",30.000,"cc",28475.238,6,0.100,27.000,0.200,3.000,0.300,0,0.500,0,1.000,0,5.000,0
"05/06/08","14:05:25",27.000,"cc",28568.543,6,0.100,20.000,0.200,7.000,0.300,0,0.500,0,1.000,0,5.000,0
"05/06/08","14:05:31",34.000,"cc",28514.773,6,0.100,29.000,0.200,5.000,0.300,0,0.500,0,1.000,0,5.000,0
"05/06/08","14:05:37",41.000,"cc",28440.248,6,0.100,36.000,0.200,4.000,0.300,1.000,0.500,0,1.000,0,5.000,0
"05/06/08","14:05:43",31.000,"cc",28476.813,6,0.100,27.000,0.200,3.000,0.300,1.000,0.500,0,1.000,0,5.000,0
"05/06/08","14:05:49",36.000,"cc",28481.715,6,0.100,28.000,0.200,8.000,0.300,0,0.500,0,1.000,0,5.000,0
"05/06/08","14:05:55",31.000,"cc",28481.068,6,0.100,24.000,0.200,7.000,0.300,0,0.500,0,1.000,0,5.000,0
"05/06/08","14:06:01",42.000,"cc",28432.176,6,0.100,28.000,0.200,13.000,0.300,1.000,0.500,0,1.000,0,5.000,0
"05/06/08","14:06:07",36.000,"cc",28465.404,6,0.100,31.000,0.200,5.000,0.300,0,0.500,0,1.000,0,5.000,0
"05/06/08","14:06:13",32.000,"cc",28506.736,6,0.100,29.000,0.200,3.000,0.300,0,0.500,0,1.000,0,5.000,0
"05/06/08","14:06:19",42.000,"cc",28414.744,6,0.100,38.000,0.200,4.000,0.300,0,0.500,0,1.000,0,5.000,0
"05/06/08","14:06:25",41.000,"cc",28399.617,6,0.100,36.000,0.200,5.000,0.300,0,0.500,0,1.000,0,5.000,0
"05/06/08","14:06:31",29.000,"cc",28431.406,6,0.100,24.000,0.200,4.000,0.300,0,0.500,1.000,1.000,0,5.000,0
"05/06/08","14:06:37",33.000,"cc",28456.088,6,0.100,31.000,0.200,2.000,0.300,0,0.500,0,1.000,0,5.000,0
"05/06/08","14:06:43",33.000,"cc",28418.660,6,0.100,27.000,0.200,6.000,0.300,0,0.500,0,1.000,0,5.000,0
"05/06/08","14:06:49",29.000,"cc",28430.398,6,0.100,23.000,0.200,6.000,0.300,0,0.500,0,1.000,0,5.000,0
"05/06/08","14:06:55",35.000,"cc",28463.738,6,0.100,31.000,0.200,4.000,0.300,0,0.500,0,1.000,0,5.000,0
"05/06/08","14:07:01",21.000,"cc",28520.838,6,0.100,17.000,0.200,4.000,0.300,0,0.500,0,1.000,0,5.000,0
"05/06/08","14:07:07",31.000,"cc",28514.879,6,0.100,26.000,0.200,5.000,0.300,0,0.500,0,1.000,0,5.000,0
"05/06/08","14:07:13",34.000,"cc",28461.797,6,0.100,28.000,0.200,5.000,0.300,1.000,0.500,0,1.000,0,5.000,0
"05/06/08","14:07:19",40.000,"cc",28449.809,6,0.100,33.000,0.200,7.000,0.300,0,0.500,0,1.000,0,5.000,0
"05/06/08","14:07:25",30.000,"cc",28475.895,6,0.100,27.000,0.200,3.000,0.300,0,0.500,0,1.000,0,5.000,0
"05/06/08","14:07:31",37.000,"cc",28477.272,6,0.100,33.000,0.200,4.000,0.300,0,0.500,0,1.000,0,5.000,0
"05/06/08","14:07:37",36.000,"cc",28558.832,6,0.100,30.000,0.200,6.000,0.300,0,0.500,0,1.000,0,5.000,0
"05/06/08","14:07:43",34.000,"cc",28542.518,6,0.100,27.000,0.200,7.000,0.300,0,0.500,0,1.000,0,5.000,0
"05/06/08","14:07:49",39.000,"cc",28501.744,6,0.100,33.000,0.200,6.000,0.300,0,0.500,0,1.000,0,5.000,0
"05/06/08","14:07:55",44.000,"cc",28632.871,6,0.100,40.000,0.200,4.000,0.300,0,0.500,0,1.000,0,5.000,0
"05/06/08","14:08:01",35.000,"cc",28497.137,6,0.100,31.000,0.200,4.000,0.300,0,0.500,0,1.000,0,5.000,0
"05/06/08","14:08:07",36.000,"cc",28401.797,6,0.100,30.000,0.200,5.000,0.300,1.000,0.500,0,1.000,0,5.000,0
"05/06/08","14:08:13",35.000,"cc",28316.004,6,0.100,30.000,0.200,5.000,0.300,0,0.500,0,1.000,0,5.000,0
"05/06/08","14:08:19",42.000,"cc",28336.719,6,0.100,34.000,0.200,8.000,0.300,0,0.500,0,1.000,0,5.000,0
"05/06/08","14:08:25",43.000,"cc",28323.402,6,0.100,39.000,0.200,4.000,0.300,0,0.500,0,1.000,0,5.000,0
"05/06/08","14:08:31",31.000,"cc",28387.875,6,0.100,26.000,0.200,4.000,0.300,1.000,0.500,0,1.000,0,5.000,0
"05/06/08","14:08:37",40.000,"cc",28300.375,6,0.100,36.000,0.200,4.000,0.300,0,0.500,0,1.000,0,5.000,0
"05/06/08","14:08:43",32.000,"cc",28340.938,6,0.100,27.000,0.200,5.000,0.300,0,0.500,0,1.000,0,5.000,0
"05/06/08","14:08:49",35.000,"cc",28321.777,6,0.100,30.000,0.200,5.000,0.300,0,0.500,0,1.000,0,5.000,0
"05/06/08","14:08:55",40.000,"cc",28292.754,6,0.100,33.000,0.200,7.000,0.300,0,0.500,0,1.000,0,5.000,0
"05/06/08","14:09:01",37.000,"cc",28252.539,6,0.100,30.000,0.200,7.000,0.300,0,0.500,0,1.000,0,5.000,0
"05/06/08","14:09:07",26.000,"cc",28281.123,6,0.100,21.000,0.200,5.000,0.300,0,0.500,0,1.000,0,5.000,0
"05/06/08","14:09:13",29.000,"cc",28373.076,6,0.100,25.000,0.200,4.000,0.300,0,0.500,0,1.000,0,5.000,0
"05/06/08","14:09:19",33.000,"cc",28312.578,6,0.100,30.000,0.200,3.000,0.300,0,0.500,0,1.000,0,5.000,0
"05/06/08","14:09:25",37.000,"cc",28304.082,6,0.100,34.000,0.200,2.000,0.300,0,0.500,1.000,1.000,0,5.000,0
"05/06/08","14:09:31",41.000,"cc",28283.119,6,0.100,34.000,0.200,7.000,0.300,0,0.500,0,1.000,0,5.000,0
"05/06/08","14:09:37",28.000,"cc",28394.822,6,0.100,24.000,0.200,3.000,0.300,1.000,0.500,0,1.000,0,5.000,0
"05/06/08","14:09:43",32.000,"cc",28315.242,6,0.100,29.000,0.200,3.000,0.300,0,0.500,0,1.000,0,5.000,0
"05/06/08","14:09:49",26.000,"cc",28344.760,6,0.100,22.000,0.200,4.000,0.300,0,0.500,0,1.000,0,5.000,0
"05/06/08","14:09:55",33.000,"cc",28332.494,6,0.100,29.000,0.200,4.000,0.300,0,0.500,0,1.000,0,5.000,0
"05/06/08","14:10:01",46.000,"cc",28280.492,6,0.100,40.000,0.200,6.000,0.300,0,0.500,0,1.000,0,5.000,0
"05/06/08","14:10:07",244.000,"cc",28261.510,6,0.100,99.000,0.200,27.000,0.300,19.000,0.500,22.000,1.000,75.000,5.000,2.000
"05/06/08","14:10:13",264.000,"cc",28397.432,6,0.100,97.000,0.200,42.000,0.300,29.000,0.500,22.000,1.000,73.000,5.000,1.000
"05/06/08","14:10:19",70.000,"cc",28328.598,6,0.100,47.000,0.200,12.000,0.300,4.000,0.500,3.000,1.000,4.000,5.000,0
"05/06/08","14:10:25",68.000,"cc",28293.022,6,0.100,45.000,0.200,5.000,0.300,2.000,0.500,4.000,1.000,12.000,5.000,0
"05/06/08","14:10:31",248.000,"cc",28287.430,6,0.100,73.000,0.200,36.000,0.300,23.000,0.500,32.000,1.000,81.000,5.000,3.000
"05/06/08","14:10:37",98.000,"cc",28297.174,6,0.100,56.000,0.200,15.000,0.300,4.000,0.500,6.000,1.000,17.000,5.000,0
"05/06/08","14:10:43",291.000,"cc",28304.107,6,0.100,98.000,0.200,46.000,0.300,32.000,0.500,35.000,1.000,79.000,5.000,1.000
"05/06/08","14:10:49",975.000,"cc",28333.496,6,0.100,278.000,0.200,94.000,0.300,98.000,0.500,120.000,1.000,383.000,5.000,2.000
"05/06/08","14:10:55",362.000,"cc",28314.863,6,0.100,140.000,0.200,34.000,0.300,23.000,0.500,44.000,1.000,119.000,5.000,2.000
"05/06/08","14:11:01",188.000,"cc",28294.307,6,0.100,77.000,0.200,23.000,0.300,15.000,0.500,21.000,1.000,52.000,5.000,0
"05/06/08","14:11:07",1517.000,"cc",28367.822,6,0.100,453.000,0.200,166.000,0.300,111.000,0.500,197.000,1.000,578.000,5.000,12.000
"05/06/08","14:11:13",2242.000,"cc",28263.803,6,0.100,613.000,0.200,291.000,0.300,225.000,0.500,297.000,1.000,808.000,5.000,8.000
"05/06/08","14:11:19",2816.000,"cc",28237.979,6,0.100,780.000,0.200,320.000,0.300,276.000,0.500,418.000,1.000,1008.000,5.000,14.000
"05/06/08","14:11:25",1023.000,"cc",28346.826,6,0.100,320.000,0.200,122.000,0.300,90.000,0.500,142.000,1.000,342.000,5.000,7.000
"05/06/08","14:11:31",1390.000,"cc",28270.643,6,0.100,394.000,0.200,139.000,0.300,117.000,0.500,206.000,1.000,528.000,5.000,6.000
"05/06/08","14:11:37",1316.000,"cc",28282.027,6,0.100,487.000,0.200,144.000,0.300,119.000,0.500,145.000,1.000,413.000,5.000,8.000
"05/06/08","14:11:43",1704.000,"cc",28325.008,6,0.100,516.000,0.200,196.000,0.300,168.000,0.500,237.000,1.000,573.000,5.000,14.000
"05/06/08","14:11:49",621.000,"cc",28378.272,6,0.100,215.000,0.200,75.000,0.300,48.000,0.500,79.000,1.000,203.000,5.000,1.000
"05/06/08","14:11:55",1014.000,"cc",28309.920,6,0.100,317.000,0.200,122.000,0.300,96.000,0.500,147.000,1.000,330.000,5.000,2.000
"05/06/08","14:12:01",1608.000,"cc",28360.281,6,0.100,442.000,0.200,155.000,0.300,150.000,0.500,214.000,1.000,637.000,5.000,10.000
"05/06/08","14:12:07",692.000,"cc",28361.072,6,0.100,212.000,0.200,97.000,0.300,68.000,0.500,106.000,1.000,207.000,5.000,2.000
"05/06/08","14:12:13",444.000,"cc",28296.363,6,0.100,156.000,0.200,59.000,0.300,46.000,0.500,56.000,1.000,126.000,5.000,1.000
"05/06/08","14:12:19",207.000,"cc",28245.828,6,0.100,81.000,0.200,20.000,0.300,20.000,0.500,24.000,1.000,61.000,5.000,1.000
"05/06/08","14:12:25",1372.000,"cc",28334.018,6,0.100,372.000,0.200,151.000,0.300,141.000,0.500,193.000,1.000,508.000,5.000,7.000
"05/06/08","14:12:31",287.000,"cc",28319.131,6,0.100,127.000,0.200,40.000,0.300,26.000,0.500,41.000,1.000,53.000,5.000,0
"05/06/08","14:12:37",104.000,"cc",28287.256,6,0.100,62.000,0.200,17.000,0.300,3.000,0.500,7.000,1.000,15.000,5.000,0
"05/06/08","14:12:43",55.000,"cc",28337.352,6,0.100,42.000,0.200,8.000,0.300,3.000,0.500,0,1.000,2.000,5.000,0
"05/06/08","14:12:49",40.000,"cc",28293.572,6,0.100,33.000,0.200,5.000,0.300,0,0.500,2.000,1.000,0,5.000,0
"05/06/08","14:12:55",1707.000,"cc",28299.258,6,0.100,464.000,0.200,174.000,0.300,157.000,0.500,275.000,1.000,631.000,5.000,6.000
"05/06/08","14:13:01",1547.000,"cc",28327.908,6,0.100,438.000,0.200,177.000,0.300,147.000,0.500,216.000,1.000,560.000,5.000,9.000
"05/06/08","14:13:07",2553.000,"cc",28266.781,6,0.100,770.000,0.200,311.000,0.300,225.000,0.500,359.000,1.000,875.000,5.000,13.000
"05/06/08","14:13:13",2036.000,"cc",28246.318,6,0.100,598.000,0.200,288.000,0.300,182.000,0.500,286.000,1.000,675.000,5.000,7.000
"05/06/08","14:13:19",2029.000,"cc",28347.457,6,0.100,635.000,0.200,261.000,0.300,194.000,0.500,273.000,1.000,654.000,5.000,12.000
"05/06/08","14:13:25",101.000,"cc",28355.912,6,0.100,77.000,0.200,12.000,0.300,5.000,0.500,3.000,1.000,4.000,5.000,0
"05/06/08","14:13:31",59.000,"cc",28369.965,6,0.100,47.000,0.200,8.000,0.300,1.000,0.500,1.000,1.000,2.000,5.000,0
"05/06/08","14:13:37",74.000,"cc",28357.098,6,0.100,53.000,0.200,8.000,0.300,5.000,0.500,2.000,1.000,6.000,5.000,0
"05/06/08","14:13:43",2546.000,"cc",27935.115,6,0.100,1662.000,0.200,527.000,0.300,207.000,0.500,85.000,1.000,34.000,5.000,31.000
"05/06/08","14:13:49",184.000,"cc",27778.598,6,0.100,124.000,0.200,37.000,0.300,10.000,0.500,9.000,1.000,4.000,5.000,0
"05/06/08","14:13:55",76.000,"cc",28335.008,6,0.100,59.000,0.200,12.000,0.300,5.000,0.500,0,1.000,0,5.000,0
"05/06/08","14:14:01",3240.000,"cc",28311.383,6,0.100,2654.000,0.200,376.000,0.300,96.000,0.500,81.000,1.000,26.000,5.000,7.000
"05/06/08","14:14:07",438.000,"cc",25940.520,6,0.100,281.000,0.200,80.000,0.300,48.000,0.500,23.000,1.000,5.000,5.000,1.000
"05/06/08","14:14:13",118.000,"cc",26429.266,6,0.100,76.000,0.200,11.000,0.300,5.000,0.500,9.000,1.000,17.000,5.000,0
"05/06/08","14:14:19",62.000,"cc",26657.203,6,0.100,51.000,0.200,9.000,0.300,1.000,0.500,1.000,1.000,0,5.000,0
"05/06/08","14:14:25",5191.000,"cc",26995.143,6,0.100,3978.000,0.200,535.000,0.300,296.000,0.500,259.000,1.000,116.000,5.000,7.000
"05/06/08","14:14:31",337.000,"cc",27064.889,6,0.100,230.000,0.200,48.000,0.300,28.000,0.500,20.000,1.000,11.000,5.000,0
"05/06/08","14:14:37",129.000,"cc",27088.111,6,0.100,71.000,0.200,16.000,0.300,8.000,0.500,9.000,1.000,25.000,5.000,0
"05/06/08","14:14:43",43.000,"cc",27033.973,6,0.100,32.000,0.200,10.000,0.300,1.000,0.500,0,1.000,0,5.000,0
"05/06/08","14:14:49",40.000,"cc",26876.629,6,0.100,32.000,0.200,8.000,0.300,0,0.500,0,1.000,0,5.000,0
"05/06/08","14:14:55",41.000,"cc",26786.352,6,0.100,32.000,0.200,8.000,0.300,1.000,0.500,0,1.000,0,5.000,0
"05/06/08","14:15:01",31.000,"cc",26786.703,6,0.100,26.000,0.200,5.000,0.300,0,0.500,0,1.000,0,5.000,0
"05/06/08","14:15:07",35.000,"cc",26712.059,6,0.100,27.000,0.200,7.000,0.300,1.000,0.500,0,1.000,0,5.000,0
"05/06/08","14:15:13",46.000,"cc",26723.898,6,0.100,40.000,0.200,5.000,0.300,0,0.500,1.000,1.000,0,5.000,0
"05/06/08","14:15:19",39.000,"cc",26683.606,6,0.100,36.000,0.200,3.000,0.300,0,0.500,0,1.000,0,5.000,0
"05/06/08","14:15:24",3133.000,"cc",25102.727,6,0.100,2518.000,0.200,380.000,0.300,117.000,0.500,78.000,1.000,28.000,5.000,12.000
"05/06/08","14:16:25",1787.000,"cc",27166.178,6,0.100,550.000,0.200,239.000,0.300,194.000,0.500,223.000,1.000,578.000,5.000,3.000
"05/06/08","14:16:31",2779.000,"cc",27018.695,6,0.100,774.000,0.200,387.000,0.300,317.000,0.500,423.000,1.000,869.000,5.000,9.000
"05/06/08","14:16:37",1888.000,"cc",26863.785,6,0.100,646.000,0.200,247.000,0.300,180.000,0.500,244.000,1.000,569.000,5.000,2.000
"05/06/08","14:16:43",1866.000,"cc",26836.500,6,0.100,578.000,0.200,228.000,0.300,188.000,0.500,263.000,1.000,603.000,5.000,6.000
"05/06/08","14:16:49",2409.000,"cc",26747.547,6,0.100,706.000,0.200,303.000,0.300,236.000,0.500,334.000,1.000,821.000,5.000,9.000
"05/06/08","14:16:55",1944.000,"cc",26743.488,6,0.100,602.000,0.200,236.000,0.300,196.000,0.500,285.000,1.000,619.000,5.000,6.000
"05/06/08","14:17:01",1580.000,"cc",26683.742,6,0.100,479.000,0.200,179.000,0.300,175.000,0.500,209.000,1.000,532.000,5.000,6.000
"05/06/08","14:17:07",2355.000,"cc",26710.906,6,0.100,719.000,0.200,291.000,0.300,211.000,0.500,347.000,1.000,780.000,5.000,7.000
"05/06/08","14:17:13",1411.000,"cc",26878.166,6,0.100,462.000,0.200,172.000,0.300,149.000,0.500,189.000,1.000,432.000,5.000,7.000
"05/06/08","14:17:19",1770.000,"cc",27100.588,6,0.100,505.000,0.200,219.000,0.300,181.000,0.500,239.000,1.000,621.000,5.000,5.000
"05/06/08","14:17:25",1761.000,"cc",27350.877,6,0.100,545.000,0.200,226.000,0.300,129.000,0.500,255.000,1.000,603.000,5.000,3.000
"05/06/08","14:17:31",991.000,"cc",27658.051,6,0.100,320.000,0.200,119.000,0.300,98.000,0.500,129.000,1.000,323.000,5.000,2.000
"05/06/08","14:17:37",280.000,"cc",28158.229,6,0.100,131.000,0.200,29.000,0.300,21.000,0.500,23.000,1.000,76.000,5.000,0
"05/06/08","14:17:43",932.000,"cc",28400.555,6,0.100,261.000,0.200,106.000,0.300,91.000,0.500,126.000,1.000,344.000,5.000,4.000
"05/06/08","14:17:49",1055.000,"cc",28470.496,6,0.100,343.000,0.200,127.000,0.300,97.000,0.500,133.000,1.000,353.000,5.000,2.000
"05/06/08","14:17:55",311.000,"cc",28407.232,6,0.100,106.000,0.200,41.000,0.300,30.000,0.500,39.000,1.000,95.000,5.000,0
"05/06/08","14:18:01",1134.000,"cc",28335.381,6,0.100,303.000,0.200,149.000,0.300,99.000,0.500,176.000,1.000,403.000,5.000,4.000
"05/06/08","14:18:07",1776.000,"cc",28392.623,6,0.100,559.000,0.200,199.000,0.300,170.000,0.500,235.000,1.000,611.000,5.000,2.000
"05/06/08","14:18:13",159.000,"cc",28492.104,6,0.100,69.000,0.200,27.000,0.300,16.000,0.500,13.000,1.000,34.000,5.000,0
"05/06/08","14:18:19",48.000,"cc",28358.164,6,0.100,40.000,0.200,6.000,0.300,1.000,0.500,1.000,1.000,0,5.000,0
"05/06/08","14:18:25",1736.000,"cc",28434.752,6,0.100,369.000,0.200,164.000,0.300,180.000,0.500,274.000,1.000,741.000,5.000,8.000
"05/06/08","14:18:31",1557.000,"cc",28503.787,6,0.100,447.000,0.200,189.000,0.300,166.000,0.500,224.000,1.000,529.000,5.000,2.000
"05/06/08","14:18:37",3344.000,"cc",28190.561,6,0.100,1801.000,0.200,676.000,0.300,293.000,0.500,199.000,1.000,338.000,5.000,37.000
"05/06/08","14:18:43",707.000,"cc",27435.291,6,0.100,326.000,0.200,138.000,0.300,61.000,0.500,57.000,1.000,123.000,5.000,2.000
"05/06/08","14:18:49",86.000,"cc",28293.731,6,0.100,68.000,0.200,12.000,0.300,4.000,0.500,1.000,1.000,1.000,5.000,0
"05/06/08","14:18:55",134.000,"cc",28396.648,6,0.100,60.000,0.200,10.000,0.300,14.000,0.500,15.000,1.000,35.000,5.000,0
"05/06/08","14:19:01",716.000,"cc",28484.906,6,0.100,190.000,0.200,77.000,0.300,63.000,0.500,107.000,1.000,275.000,5.000,4.000
"05/06/08","14:19:07",1054.000,"cc",28446.293,6,0.100,306.000,0.200,133.000,0.300,90.000,0.500,131.000,1.000,389.000,5.000,5.000
"05/06/08","14:19:13",66.000,"cc",28446.582,6,0.100,56.000,0.200,9.000,0.300,1.000,0.500,0,1.000,0,5.000,0
"05/06/08","14:19:19",48.000,"cc",28358.545,6,0.100,40.000,0.200,8.000,0.300,0,0.500,0,1.000,0,5.000,0
"05/06/08","14:19:25",37.000,"cc",28389.148,6,0.100,30.000,0.200,6.000,0.300,1.000,0.500,0,1.000,0,5.000,0
"05/06/08","14:19:31",36.000,"cc",28483.691,6,0.100,27.000,0.200,9.000,0.300,0,0.500,0,1.000,0,5.000,0
"05/06/08","14:19:37",37.000,"cc",28419.926,6,0.100,33.000,0.200,4.000,0.300,0,0.500,0,1.000,0,5.000,0
"05/06/08","14:19:43",40.000,"cc",28431.365,6,0.100,34.000,0.200,6.000,0.300,0,0.500,0,1.000,0,5.000,0
"05/06/08","14:19:49",44.000,"cc",28438.467,6,0.100,34.000,0.200,10.000,0.300,0,0.500,0,1.000,0,5.000,0
"05/06/08","14:19:55",38.000,"cc",28430.580,6,0.100,31.000,0.200,7.000,0.300,0,0.500,0,1.000,0,5.000,0
"05/06/08","14:20:01",41.000,"cc",28427.654,6,0.100,36.000,0.200,5.000,0.300,0,0.500,0,1.000,0,5.000,0
"05/06/08","14:20:07",40.000,"cc",28440.760,6,0.100,32.000,0.200,8.000,0.300,0,0.500,0,1.000,0,5.000,0
"05/06/08","14:20:13",4582.000,"cc",27848.596,6,0.100,3385.000,0.200,789.000,0.300,181.000,0.500,119.000,1.000,73.000,5.000,35.000
"05/06/08","14:20:19",158.000,"cc",26688.322,6,0.100,100.000,0.200,35.000,0.300,15.000,0.500,6.000,1.000,2.000,5.000,0
"05/06/08","14:20:25",67.000,"cc",27676.783,6,0.100,55.000,0.200,10.000,0.300,1.000,0.500,0,1.000,1.000,5.000,0
"05/06/08","14:20:31",48.000,"cc",28099.410,6,0.100,42.000,0.200,5.000,0.300,1.000,0.500,0,1.000,0,5.000,0
"05/06/08","14:20:37",46.000,"cc",28384.522,6,0.100,36.000,0.200,8.000,0.300,0,0.500,1.000,1.000,1.000,5.000,0
"05/06/08","14:20:43",36.000,"cc",28505.611,6,0.100,28.000,0.200,8.000,0.300,0,0.500,0,1.000,0,5.000,0